• Processing (Info)

  • MPEC 2013-V74 : 2013 VH13

    The following Minor Planet Electronic Circular may be linked-to from your own Web pages, but must not otherwise be redistributed electronically.

    A form allowing access to any MPEC is at the bottom of this page.


    Read MPEC 2013-V73 Read MPEC 2013-V75


    M.P.E.C. 2013-V74                                Issued 2013 Nov. 12, 12:17 UT
    
         The Minor Planet Electronic Circulars contain information on unusual
             minor planets and routine data on comets.  They are published
       on behalf of Commission 20 of the International Astronomical Union by the
              Minor Planet Center, Smithsonian Astrophysical Observatory,
                              Cambridge, MA 02138, U.S.A.
    
                 Prepared using the Tamkin Foundation Computer Network
    
                                  MPC@CFA.HARVARD.EDU
                URL https://www.minorplanetcenter.net/    ISSN 1523-6714
    
                                       2013 VH13
    
    Observations:
         K13V13H* C2013 11 10.12911 02 26 53.63 +35 09 37.0          21.9 VqEV074G96
         K13V13H  C2013 11 10.13602 02 26 55.77 +35 09 33.7          21.5 VqEV074G96
         K13V13H  C2013 11 10.14981 02 27 00.12 +35 09 26.7          21.5 VqEV074G96
         K13V13H  C2013 11 10.19311 02 27 13.56 +35 09 03.8          21.5 VqEV074G96
         K13V13H  C2013 11 10.19676 02 27 14.63 +35 09 00.9          21.7 VqEV074G96
         K13V13H  C2013 11 10.19858 02 27 15.15 +35 09 00.4          21.6 VqEV074G96
         K13V13H  C2013 11 10.20041 02 27 15.79 +35 08 59.3          21.0 VqEV074G96
         K13V13H  C2013 11 10.31453 02 27 50.07 +35 07 44.4          21.4 VqEV074G96
         K13V13H  C2013 11 10.32222 02 27 52.36 +35 07 38.1          22.3 VqEV074G96
         K13V13H  C2013 11 10.32992 02 27 54.64 +35 07 32.7          21.5 VqEV074G96
         K13V13H  C2013 11 10.33760 02 27 56.98 +35 07 26.2          21.9 VqEV074G96
         K13V13H KC2013 11 11.14528 02 32 17.30 +34 58 01.9          21.0 RoEV074291
         K13V13H KC2013 11 11.14957 02 32 18.55 +34 58 00.5          20.6 RoEV074291
         K13V13H KC2013 11 11.15387 02 32 19.75 +34 57 57.4          20.7 RoEV074291
         K13V13H  C2013 11 12.09671202 36 49.35 +34 46 51.4          21.1 RtEV074H01
         K13V13H  C2013 11 12.10181102 36 50.66 +34 46 48.7          21.1 RtEV074H01
         K13V13H  C2013 11 12.10897702 36 52.46 +34 46 45.0          21.4 RtEV074H01
         K13V13H  C2013 11 12.11799802 36 54.76 +34 46 40.3          21.2 RtEV074H01
         K13V13H KC2013 11 12.19008 02 37 12.91 +34 46 00.4          21.2 RoEV074291
         K13V13H KC2013 11 12.19593 02 37 14.29 +34 45 57.1          21.1 RoEV074291
         K13V13H KC2013 11 12.20178 02 37 15.74 +34 45 53.8          21.5 RoEV074291
    
    Observer details:
    291 LPL/Spacewatch II.  Observers T. H. Bressi, R. A. Mastaler.  1.8-m f/2.7
        reflector + CCD.
    G96 Mt. Lemmon Survey.  Observer A. Boattini.  Measurers A. Boattini,
        E. J. Christensen, A. R. Gibbs, A. D. Grauer, R. E. Hill, J. A. Johnson,
        R. A. Kowalski, S. M. Larson, F. C. Shelly.  1.5-m reflector + CCD.
    H01 Magdalena Ridge Observatory, Socorro.  Observers W. H. Ryan, E. V. Ryan.
        Measurer W. H. Ryan.  2.4-m f/8.9 reflector + CCD.
    
    Orbital elements:
    2013 VH13                                                Earth MOID = 0.0137 AU
    Epoch 2013 Nov. 4.0 TT = JDT 2456600.5                  MPC
    M  10.07519              (2000.0)            P               Q
    n   0.28005535     Peri.  342.62739     +0.99752661     +0.06883816
    a   2.3136987      Node    13.44917     -0.05502227     +0.89054414
    e   0.5924042      Incl.    3.50309     -0.04374020     +0.44965813
    P   3.52           H   25.1           G   0.15           U   7
    Residuals in seconds of arc
    131110 G96  0.3+  0.1-    131110 G96  0.1+  0.4+    131112 H01  0.1+  0.1-
    131110 G96  0.3-  0.0     131110 G96  0.0   0.2-    131112 H01  0.1+  0.1-
    131110 G96  0.1-  0.0     131110 G96  0.3-  0.3+    131112 H01  0.1-  0.1-
    131110 G96  0.4+  0.4+    131110 G96  0.2+  0.3-    131112 H01  0.1+  0.0
    131110 G96  0.2-  0.4-    131111 291  0.5-  0.4-    131112 291  0.1+  0.1-
    131110 G96  0.6-  0.1+    131111 291  0.2+  0.5+    131112 291  0.3-  0.1+
    131110 G96  0.4+  0.1+    131111 291  0.2+  0.3-    131112 291  0.2+  0.3+
    
    Ephemeris:
    2013 VH13                a,e,i = 2.31, 0.59, 4                   q = 0.9431
    Date    TT    R. A. (2000) Decl.     Delta      r     Elong.  Phase     V
    2013 10 13    17 32 58.7 -22 25 30   0.08995 0.9619    64.1   111.0    24.0
    ...
    2013 10 28    22 49 27.7 +27 19 51   0.04024 1.0207   131.4    46.9    19.9
    ...
    2013 11 05    01 45 48.4 +35 53 18   0.07961 1.0650   156.3    21.9    20.8
    ...
    2013 11 11    02 31 29.3 +34 59 51   0.1185  1.1028   160.9    17.1    21.6
    2013 11 12    02 36 18.7 +34 48 15   0.1254  1.1094   161.4    16.5    21.7
    2013 11 13    02 40 38.4 +34 36 37   0.1323  1.1161   161.8    16.0    21.8
    ...
    2013 11 19    02 59 24.7 +33 29 29   0.1758  1.1580   163.6    14.0    22.4
    ...
    2013 11 27    03 14 05.8 +32 11 14   0.2390  1.2175   163.1    13.6    23.2
    ...
    2013 12 12    03 31 23.0 +30 17 31   0.3763  1.3363   155.6    17.7    24.5
    
    A. U. Tomatic                (C) Copyright 2013 MPC           M.P.E.C. 2013-V74
    

    Read MPEC 2013-V73 Read MPEC 2013-V75


    MPEC number:

    Enter an MPEC number in one of the following forms:

    • 1997-B01 (the full form)
    • J97B01 (the packed version of the full form)
    • B01 (the abbreviated form)